User: anonymous
Location: Vancouver
(49.2500°N, 123.1330°W)
Time: 00:48:15
(UTC-07:00)
Language:

Iridium 21 - Orbit

View from above orbital plane
View from above orbital plane
View from above satellite
View from above satellite

Ground track
Ground track

The orbit data is extracted from the following two-line orbital elements,

1 25778U 99032B   14212.37143863  .00000249  00000-0  81759-4 0  8210
2 25778 086.3981 303.6140 0002058 110.2955 318.3667 14.34217624797350
Epoch (UTC): 31 July 2014 08:54:52
Eccentricity: 0.0002058
inclination: 86.3981°
perigee height: 776 km
apogee height: 779 km
right ascension of ascending node: 303.6140°
argument of perigee: 110.2955°
revolutions per day: 14.34217624
mean anomaly at epoch: 318.3667°
orbit number at epoch: 79735

The dashed part of the orbit path shows where the satellite is in the earth's shadow,  

DLR